TimeEDT,TemperatureF,Dew PointF,Humidity,Sea Level PressureIn,VisibilityMPH,Wind Direction,Wind SpeedMPH,Gust SpeedMPH,PrecipitationIn,Events,Conditions,WindDirDegrees,DateUTC
12:28 AM,66.2,66.2,100,30.01,9.0,East,3.5,-,N/A,,Scattered Clouds,100,2013-07-03 04:28:00
12:38 AM,66.2,66.2,100,30.01,8.0,East,3.5,-,N/A,,Mostly Cloudy,80,2013-07-03 04:38:00
12:48 AM,66.2,66.2,100,30.01,8.0,ENE,3.5,-,N/A,,Mostly Cloudy,70,2013-07-03 04:48:00
12:58 AM,65.7,65.7,100,30.01,6.0,ENE,3.5,-,N/A,,Overcast,70,2013-07-03 04:58:00
1:08 AM,66.2,66.2,100,30.01,6.0,East,2.3,-,N/A,,Overcast,80,2013-07-03 05:08:00
1:13 AM,66.2,66.2,100,30.01,5.0,NNE,1.2,-,N/A,,Overcast,30,2013-07-03 05:13:00
1:18 AM,66.2,66.2,100,30.01,4.0,Calm,Calm,-,N/A,,Overcast,0,2013-07-03 05:18:00
1:23 AM,66.2,66.2,100,30.01,5.0,Calm,Calm,-,N/A,,Overcast,0,2013-07-03 05:23:00
1:28 AM,66.2,66.2,100,30.01,6.0,Calm,Calm,-,N/A,,Overcast,0,2013-07-03 05:28:00
1:38 AM,66.2,66.2,100,30.02,6.0,Calm,Calm,-,N/A,,Overcast,0,2013-07-03 05:38:00
1:48 AM,66.2,66.2,100,30.01,6.0,Calm,Calm,-,N/A,,Overcast,0,2013-07-03 05:48:00
1:58 AM,66.2,66.2,100,30.02,7.0,East,1.2,-,N/A,,Overcast,80,2013-07-03 05:58:00
2:03 AM,66.2,66.2,100,30.01,7.0,Calm,Calm,-,N/A,,Overcast,0,2013-07-03 06:03:00
2:13 AM,66.2,66.2,100,30.01,7.0,Calm,Calm,-,N/A,,Overcast,0,2013-07-03 06:13:00
2:28 AM,66.2,66.2,100,30.01,6.0,East,1.2,-,N/A,,Overcast,100,2013-07-03 06:28:00
2:41 AM,66.2,66.2,100,30.01,7.0,Calm,Calm,-,N/A,,Overcast,0,2013-07-03 06:41:00
2:58 AM,66.6,66.6,100,30.00,7.0,SE,2.3,-,0.01,,Overcast,140,2013-07-03 06:58:00
3:33 AM,66.2,66.2,100,30.00,10.0,SSE,3.5,-,N/A,,Overcast,160,2013-07-03 07:33:00
3:38 AM,66.2,66.2,100,30.00,9.0,SSE,3.5,-,N/A,,Overcast,160,2013-07-03 07:38:00
3:53 AM,66.2,66.2,100,30.00,7.0,South,4.6,-,N/A,,Overcast,170,2013-07-03 07:53:00
3:58 AM,66.2,66.2,100,30.01,7.0,South,4.6,-,N/A,,Overcast,170,2013-07-03 07:58:00
4:13 AM,66.2,66.2,100,30.01,10.0,South,4.6,-,N/A,,Overcast,170,2013-07-03 08:13:00
4:47 AM,66.2,66.2,100,30.01,10.0,South,4.6,-,N/A,,Overcast,190,2013-07-03 08:47:00
4:57 AM,64.4,64.4,100,30.01,10.0,South,5.8,-,N/A,,Overcast,190,2013-07-03 08:57:00
4:58 AM,65.1,65.1,100,30.01,10.0,South,6.9,-,N/A,,Overcast,190,2013-07-03 08:58:00
5:13 AM,64.4,64.4,100,30.02,9.0,SSW,3.5,-,N/A,,Overcast,200,2013-07-03 09:13:00
5:58 AM,64.8,64.8,100,30.03,7.0,SSW,4.6,-,N/A,,Overcast,200,2013-07-03 09:58:00
6:13 AM,64.4,64.4,100,30.03,5.0,South,6.9,-,N/A,,Overcast,180,2013-07-03 10:13:00
6:28 AM,64.4,64.4,100,30.04,4.0,SSW,5.8,-,N/A,,Overcast,210,2013-07-03 10:28:00
6:33 AM,64.4,64.4,100,30.04,4.0,SSW,4.6,-,N/A,,Overcast,200,2013-07-03 10:33:00
6:53 AM,64.4,64.4,100,30.04,2.0,SSW,6.9,-,N/A,,Overcast,200,2013-07-03 10:53:00
6:58 AM,64.4,64.4,100,30.04,3.0,SSW,5.8,-,N/A,,Overcast,200,2013-07-03 10:58:00
7:58 AM,64.9,64.9,100,30.05,4.0,South,3.5,-,N/A,,Overcast,190,2013-07-03 11:58:00
8:13 AM,66.2,66.2,100,30.06,5.0,South,5.8,-,N/A,,Overcast,180,2013-07-03 12:13:00
8:23 AM,66.2,66.2,100,30.06,8.0,South,6.9,-,N/A,,Overcast,190,2013-07-03 12:23:00
8:33 AM,66.2,66.2,100,30.06,6.0,South,4.6,-,N/A,,Overcast,180,2013-07-03 12:33:00
8:58 AM,66.4,66.4,100,30.07,7.0,South,5.8,-,N/A,,Mostly Cloudy,180,2013-07-03 12:58:00
9:13 AM,68.0,68.0,100,30.07,10.0,South,5.8,-,N/A,,Overcast,170,2013-07-03 13:13:00
9:28 AM,68.0,68.0,100,30.07,10.0,Variable,3.5,-,N/A,,Scattered Clouds,0,2013-07-03 13:28:00
9:58 AM,69.8,67.8,93,30.08,10.0,SSE,6.9,-,N/A,,Scattered Clouds,160,2013-07-03 13:58:00
10:31 AM,71.6,68.0,88,30.07,10.0,Variable,6.9,-,N/A,,Scattered Clouds,0,2013-07-03 14:31:00
10:58 AM,72.9,66.6,81,30.08,10.0,South,11.5,-,N/A,,Scattered Clouds,180,2013-07-03 14:58:00
11:58 AM,73.8,64.0,72,30.08,10.0,South,13.8,20.7,N/A,,Scattered Clouds,180,2013-07-03 15:58:00
12:55 PM,75.0,64.9,71,30.08,10.0,South,11.5,-,N/A,,Mostly Cloudy,190,2013-07-03 16:55:00
1:55 PM,75.7,64.6,68,30.07,10.0,SSW,15.0,19.6,N/A,,Scattered Clouds,200,2013-07-03 17:55:00
2:58 PM,76.6,62.8,62,30.09,10.0,SSW,18.4,-,N/A,,Partly Cloudy,200,2013-07-03 18:58:00
3:58 PM,77.9,62.4,59,30.08,10.0,South,17.3,-,N/A,,Partly Cloudy,190,2013-07-03 19:58:00
4:58 PM,79.3,64.0,59,30.07,10.0,SSW,12.7,-,N/A,,Partly Cloudy,200,2013-07-03 20:58:00
5:58 PM,78.1,64.2,62,30.05,10.0,SSW,9.2,-,N/A,,Partly Cloudy,210,2013-07-03 21:58:00
6:58 PM,77.2,64.0,64,30.05,10.0,SSW,11.5,-,N/A,,Clear,210,2013-07-03 22:58:00
7:58 PM,75.2,65.3,71,30.05,10.0,SW,9.2,-,N/A,,Scattered Clouds,230,2013-07-03 23:58:00
8:58 PM,72.3,66.2,81,30.07,10.0,West,5.8,-,N/A,,Scattered Clouds,270,2013-07-04 00:58:00
9:58 PM,69.4,66.7,91,30.08,10.0,Calm,Calm,-,N/A,,Clear,0,2013-07-04 01:58:00
10:58 PM,67.8,65.5,92,30.10,10.0,SW,2.3,-,N/A,,Clear,230,2013-07-04 02:58:00
11:58 PM,66.2,65.3,97,30.10,10.0,Calm,Calm,-,N/A,,Clear,0,2013-07-04 03:58:00